Location: Dover
(39.1580°N, 75.5250°W)
Time: 23:34:25

SeaSat 1 - Visible Passes

Search period start: 26 November 2015 00:00
Search period end: 06 December 2015 00:00
Orbit: 746 x 748 km, 108.0° (Epoch: 26 November)

Date Brightness Start Highest point End Pass type
(mag) Time Alt. Az. Time Alt. Az. Time Alt. Az.
27 Nov 4.9 05:59:27 10° E 06:02:17 16° NE 06:05:18 10° NNE visible
29 Nov 4.8 06:13:01 10° E 06:16:08 17° NE 06:19:23 10° N visible
01 Dec 4.7 06:26:37 10° E 06:29:58 19° NE 06:33:27 10° N visible
